Regional Weather Roundup
Issued by NWS Kansas City/Pleasant Hill, MO

Home | Current Version | Previous Version | Graphics & Text | Print | Product List | Glossary Off
Versions: 1 2 3 4 5 6 7 8 9 10 11 12 13 14 15 16 17 18 19 20 21 22 23 24 25 26 27

000
ASUS43 KEAX 232110
RWREAX

WEATHER ROUNDUP FOR EASTERN KANSAS AND NORTHWEST MISSOURI
NATIONAL WEATHER SERVICE KANSAS CITY/PLEASANT HILL MO
400 PM CDT SAT JUL 23 2016

KSZ040-057-103>105-MOZ028-029-037-043-232200-
...KANSAS CITY METROPOLITAN AREA...

CITY           SKY/WX    TMP DP  RH WIND       PRES   REMARKS
K.C. INTL      PTSUNNY   91  75  59 S12       29.90S HX 101
K.C. DOWNTOWN  CLOUDY    94  74  52 S14       29.88F HX 104
LEES SUMMIT    SUNNY     93  74  53 S12       29.91F HX 103
OLATHE - IXD   CLOUDY    93  74  53 S8        29.91F HX 103
OLATHE - OJC   CLOUDY    90  74  59 S9        29.91F HX  99
LAWRENCE       CLOUDY    93  75  55 S14       29.88S HX 104

$$

MOZ001>008-011>017-020>025-030>033-038>040-044>046-053-054-232200-
...NORTHERN AND CENTRAL MISSOURI...

CITY           SKY/WX    TMP DP  RH WIND       PRES   REMARKS
ST. JOSEPH     CLOUDY    94  77  57 S13       29.87S HX 108
MOSBY          CLOUDY    93  73  52 S9        29.89F HX 102
WHITEMAN AFB   MOSUNNY   94  76  57 S9        29.91F HX 107
CLINTON        SUNNY     93  77  59 S7        29.92F HX 107
SEDALIA        SUNNY     97  72  44 S9        29.93F HX 105
WARSAW         NOT AVBL
CHILLICOTHE      N/A     95  79  59 S8G16     29.90S HX 112
KIRKSVILLE     MOSUNNY   95  74  50 SW14      29.91F HX 105

$$

MOZ041-047>049-056>058-063>065-088>090-097-232200-
...EASTERN AND SOUTHERN MISSOURI...

CITY           SKY/WX    TMP DP  RH WIND       PRES   REMARKS
ST. LOUIS INTL MOSUNNY   96  72  45 E7        29.94F HX 104
SPIRIT OF STL  MOSUNNY   96  73  47 CALM      29.91F HX 105
COLUMBIA       MOSUNNY   95  76  53 S9        29.93F HX 108
JEFFERSON CITY SUNNY     96  73  47 S9        29.91F HX 105
ROLLA          SUNNY     94  75  54 SW7       29.95F HX 105
OSAGE BEACH    SUNNY     95  75  52 SE6       29.94F HX 107
SPRINGFIELD    SUNNY     97  68  38 NE3       29.94F HX 102
BRANSON        MOSUNNY   95  72  46 W5        29.97F HX 103
JOPLIN         SUNNY     95  73  48 SW14      29.93F HX 104
WEST PLAINS    MOSUNNY   98  73  44 CALM      29.98F HX 108

$$

IAZ060-094-KSZ022-034>040-054-083-096-NEZ052-066-093-232200-
...KANSAS...SOUTHEAST NEBRASKA AND IOWA...

CITY           SKY/WX    TMP DP  RH WIND       PRES   REMARKS
TOPEKA         CLOUDY    94  70  45 S12       29.86F HX 100
MANHATTAN      CLOUDY    96  70  42 S8        29.83F HX 102
EMPORIA        CLOUDY    97  69  40 S17G25    29.88F HX 103
CHANUTE        SUNNY     96  71  44 S14       29.89F HX 103
WICHITA        PTSUNNY  104  62  25 S22       29.83F HX 106
OMAHA          MOSUNNY   92  74  55 S15       29.79F HX 101
LINCOLN        CLOUDY    90  74  59 S8        29.82F HX  99
FALLS CITY     CLOUDY    90  75  61 S9        29.84F HX 100
LAMONI         CLOUDY    89  78  70 S10       29.87F HX 103
DES MOINES     CLOUDY    91  80  70 S12       29.82F HX 109

$$





USA.gov is the U.S. government's official web portal to all federal, state and local government web resources and services.